This is the latest recevied weather packets stored in our database for station/object R2AKT-13. If no packets are shown the sender has not sent any weather packets the latest 10 day(s).
| Time | Temp. | Humidity | Pressure | Rain* | Wind** | Luminosity | Snow |
|---|---|---|---|---|---|---|---|
| 1788122881 | 15° C | 87% | 994.3 hPa | - | 1.34 m/s, 173° | - | - |
| 1788122386 | 15° C | 87% | 994.3 hPa | - | 2.24 m/s, 175° | - | - |
| 1788121851 | 15° C | 87% | 994.3 hPa | - | 2.24 m/s, 178° | - | - |
| 1788121356 | 14.44° C | 87% | 994.3 hPa | - | 2.24 m/s, 173° | - | - |
| 1788120831 | 14.44° C | 88% | 994.4 hPa | - | 2.24 m/s, 173° | - | - |
| 1788120331 | 14.44° C | 88% | 994.4 hPa | - | 1.79 m/s, 172° | - | - |
| 1788119746 | 14.44° C | 88% | 994.4 hPa | - | 2.24 m/s, 186° | - | - |
| 1788119264 | 14.44° C | 88% | 994.5 hPa | - | 2.24 m/s, 182° | - | - |
| 1788118736 | 15° C | 88% | 994.5 hPa | - | 0.45 m/s, 205° | - | - |
| 1788118139 | 15° C | 87% | 994.5 hPa | - | 1.34 m/s, 186° | - | - |
| 1788117571 | 15° C | 86% | 994.5 hPa | - | 0.89 m/s, 190° | - | - |
| 1788117079 | 15° C | 86% | 994.5 hPa | - | 1.79 m/s, 185° | - | - |
| 1788116591 | 15° C | 86% | 994.5 hPa | - | 0.89 m/s, 187° | - | - |
| 1788116026 | 15° C | 85% | 994.6 hPa | - | 1.79 m/s, 176° | - | - |
| 1788115536 | 15° C | 85% | 994.6 hPa | - | 1.79 m/s, 178° | - | - |
| 1788115021 | 15.56° C | 84% | 994.5 hPa | - | 1.34 m/s, 194° | - | - |
| 1788114541 | 15.56° C | 83% | 994.5 hPa | - | 1.79 m/s, 196° | - | - |
| 1788113996 | 15.56° C | 83% | 994.4 hPa | - | 1.79 m/s, 177° | - | - |
| 1788113471 | 15.56° C | 83% | 994.4 hPa | - | 1.34 m/s, 178° | - | - |
| 1788112876 | 15.56° C | 84% | 994.4 hPa | - | 1.79 m/s, 184° | - | - |
| 1788112306 | 15.56° C | 83% | 994.5 hPa | - | 1.79 m/s, 179° | - | - |
| 1788111761 | 15.56° C | 83% | 994.5 hPa | - | 2.24 m/s, 181° | - | - |
| 1788111226 | 15.56° C | 82% | 994.6 hPa | - | 1.34 m/s, 186° | - | - |
| 1788110741 | 15.56° C | 82% | 994.6 hPa | - | 2.24 m/s, 193° | - | - |
| 1788110221 | 15.56° C | 82% | 994.6 hPa | - | 1.79 m/s, 154° | - | - |
* Rain since midnight (hover to see other rain measurements)
** Current wind speed in m/s (hover to see current wind gust speed)